Location: Eboldshausen
(51.7766°N, 10.0050°E)
Time: 17:33:00
(UTC+00:00)

YAOGAN 1 - Pass Details

Date: 15 November 2025
Orbit: 605 x 607 km, 97.8° (Epoch: 09 December)

Event Time Altitude Azimuth Distance (km) Brightness Sun altitude
Rises 16:04:55 0° 114° (ESE) 2,863 5.6 -5.8°
Reaches altitude 10° 16:07:52 10° 92° (E) 1,963 4.6 -6.2°
Maximum altitude 16:10:19 15° 57° (ENE) 1,652 4.1 -6.5°
Drops below altitude 10° 16:12:46 10° 21° (NNE) 1,970 4.7 -6.9°
Sets 16:15:43 0° 359° (N) 2,879 5.8 -7.3°
